TimeCDT,TemperatureF,Dew PointF,Humidity,Sea Level PressureIn,VisibilityMPH,Wind Direction,Wind SpeedMPH,Gust SpeedMPH,PrecipitationIn,Events,Conditions,WindDirDegrees,DateUTC
12:53 AM,69.1,66.0,90,29.99,10.0,South,4.6,-,N/A,,Overcast,170,2013-07-26 05:53:00
1:53 AM,69.1,66.9,93,29.99,10.0,SE,3.5,-,0.00,,Overcast,140,2013-07-26 06:53:00
2:53 AM,69.1,66.0,90,29.98,10.0,South,3.5,-,N/A,,Overcast,190,2013-07-26 07:53:00
3:53 AM,69.1,66.0,90,29.97,5.0,SSW,8.1,-,0.03,Rain,Rain,210,2013-07-26 08:53:00
4:53 AM,68.0,66.0,93,29.97,10.0,SW,8.1,-,0.00,,Overcast,220,2013-07-26 09:53:00
5:53 AM,68.0,64.9,90,29.97,10.0,SW,8.1,-,N/A,,Overcast,230,2013-07-26 10:53:00
6:53 AM,66.9,64.9,93,29.99,10.0,SW,5.8,-,N/A,,Mostly Cloudy,230,2013-07-26 11:53:00
7:53 AM,69.1,66.0,90,29.99,10.0,WSW,9.2,-,N/A,,Scattered Clouds,240,2013-07-26 12:53:00
8:04 AM,69.8,66.2,88,30.01,10.0,WSW,6.9,-,N/A,,Partly Cloudy,250,2013-07-26 13:04:00
8:53 AM,72.0,66.9,84,29.99,10.0,West,11.5,-,N/A,,Mostly Cloudy,280,2013-07-26 13:53:00
9:36 AM,75.2,68.0,78,30.01,10.0,WNW,8.1,-,N/A,,Mostly Cloudy,300,2013-07-26 14:36:00
9:53 AM,75.0,68.0,79,30.00,10.0,NW,9.2,-,N/A,,Mostly Cloudy,310,2013-07-26 14:53:00
10:00 AM,73.4,68.0,83,30.02,10.0,WNW,10.4,-,N/A,,Mostly Cloudy,300,2013-07-26 15:00:00
10:45 AM,77.0,66.2,69,30.03,10.0,NW,6.9,-,N/A,,Scattered Clouds,320,2013-07-26 15:45:00
10:53 AM,77.0,66.9,71,30.01,10.0,NNW,10.4,-,N/A,,Scattered Clouds,330,2013-07-26 15:53:00
11:12 AM,75.2,66.2,73,30.03,10.0,NNW,9.2,-,N/A,,Mostly Cloudy,330,2013-07-26 16:12:00
11:35 AM,78.8,66.2,65,30.04,10.0,NW,13.8,-,N/A,,Scattered Clouds,320,2013-07-26 16:35:00
11:53 AM,77.0,66.9,71,30.01,10.0,NW,13.8,-,N/A,,Scattered Clouds,320,2013-07-26 16:53:00
12:14 PM,78.8,66.2,65,30.03,10.0,NNW,11.5,-,N/A,,Mostly Cloudy,340,2013-07-26 17:14:00
12:21 PM,78.8,64.4,61,30.03,10.0,NNW,13.8,-,N/A,,Scattered Clouds,340,2013-07-26 17:21:00
12:53 PM,80.1,62.1,54,30.01,10.0,North,13.8,-,N/A,,Partly Cloudy,350,2013-07-26 17:53:00
1:53 PM,81.0,59.0,47,30.00,10.0,NNW,18.4,23.0,N/A,,Clear,330,2013-07-26 18:53:00
2:53 PM,80.1,53.1,39,30.01,10.0,NW,17.3,25.3,N/A,,Clear,320,2013-07-26 19:53:00
3:53 PM,80.1,50.0,35,30.00,10.0,NNW,13.8,-,N/A,,Clear,340,2013-07-26 20:53:00
4:53 PM,79.0,50.0,36,30.00,10.0,NNW,13.8,-,N/A,,Clear,330,2013-07-26 21:53:00
5:53 PM,78.1,53.1,42,30.01,10.0,NW,12.7,-,N/A,,Clear,320,2013-07-26 22:53:00
6:53 PM,75.0,54.0,48,30.01,10.0,North,11.5,-,N/A,,Clear,350,2013-07-26 23:53:00
7:53 PM,71.1,52.0,51,30.03,10.0,North,11.5,-,N/A,,Clear,350,2013-07-27 00:53:00
8:53 PM,64.9,53.1,65,30.04,10.0,North,8.1,-,N/A,,Clear,350,2013-07-27 01:53:00
9:53 PM,62.1,52.0,70,30.05,10.0,NNW,4.6,-,N/A,,Clear,340,2013-07-27 02:53:00
10:53 PM,61.0,52.0,72,30.06,10.0,NNW,6.9,-,N/A,,Clear,330,2013-07-27 03:53:00
11:53 PM,57.9,52.0,81,30.06,10.0,NW,5.8,-,N/A,,Clear,320,2013-07-27 04:53:00